Powrót do katalogu

SAOCOM 1-A

AktywnyNaukaSSO
NORAD 43641·PAYLOAD·🇦🇷 Argentina

Wystrzelony Oct 8, 2018 z Vandenberg Space Force Base

Loading…

Następne Przeloty (najbliższe 24 godziny)

TLE

ŚwieżeSource: Space-Track

Epoka: Sep 14, 2026, 14:06 UTC

1 43641U 18076A   26257.58750668 -.00000095  00000-0 -53646-5 0  9992
2 43641  97.8889  83.0513 0001392  82.4380 277.6991 14.82143868429347

Śledź SAOCOM 1-A w czasie rzeczywistym z AllMySat

Download on the App Store